Location: El Centro
(32.7920°N, 115.5620°W)
Time: 05:59:19
(UTC-08:00)

Amateur Radio Satellites - All Passes

Search period start: 15 December 2017 05:29
Search period end: 16 December 2017 05:29
Location: El Centro, 32.7920°N, 115.5620°W

Satellite Date Start Highest point End Downlink Frequencies (MHz)
Time Altitude Azimuth
AO-7 15 Dec 05:29:31 05:33:48 15° 306° (NW) 05:38:05 .
LilacSat-2 15 Dec 05:31:06 05:34:56 60° 100° (E) 05:38:44 437.200
HO-68 15 Dec 05:32:50 05:37:53 20° 95° (E) 05:42:53 435.675
AO-85 15 Dec 05:33:21 05:36:57 20° 53° (NE) 05:40:42 145.980
CUTE 1.7 + AOD 2 15 Dec 05:40:01 05:42:28 15° 93° (E) 05:44:55 437.475
XW-2D 15 Dec 05:44:36 05:48:27 89° 96° (E) 05:52:17 145.860 - 145.880
NO-84 15 Dec 05:45:54 05:48:41 42° 315° (NW) 05:51:39 435.350 FM
NUDT-PHONESAT 15 Dec 05:46:30 05:50:12 56° 100° (E) 05:53:52 437.300
KAITUO 1B 15 Dec 05:51:18 05:55:05 71° 101° (E) 05:58:49 145.475/437.950
SRMSAT 15 Dec 05:56:51 06:00:59 19° 170° (S) 06:05:06 437.500
XW-2B 15 Dec 06:00:34 06:04:21 57° 284° (WNW) 06:08:06 145.730 - 145.750
XW-2F 15 Dec 06:12:13 06:15:50 41° 285° (WNW) 06:19:26 145.980 - 146.000
STRAND 1 15 Dec 06:16:33 06:21:37 66° 75° (ENE) 06:26:42 437.568
XW-2C 15 Dec 06:28:33 06:31:41 24° 288° (WNW) 06:34:48 145.795 - 145.815
UWE-3 15 Dec 06:31:50 06:35:03 20° 96° (E) 06:38:18 435.000/436.395/437.385
CUBEBUG 2 15 Dec 06:32:47 06:36:48 38° 99° (E) 06:40:56 437.445
SEEDS 15 Dec 06:49:54 06:54:07 64° 100° (E) 06:58:17 437.485
O/OREOS (USA 219) 15 Dec 06:50:18 06:53:54 23° 102° (ESE) 06:57:30 437.305
ZACube-1 15 Dec 06:55:31 06:58:38 19° 95° (E) 07:01:47 437.345
JUGNU 15 Dec 06:57:28 07:01:06 17° 192° (SSW) 07:04:46 437.505
BEESAT 2 15 Dec 06:57:29 06:59:10 12° 252° (WSW) 07:00:51 435.950
FO-29 15 Dec 07:02:16 07:09:45 60° 72° (ENE) 07:17:28 435.910
CUTE-I 15 Dec 07:06:46 07:10:53 23° 292° (WNW) 07:14:58 437.470
AAUSAT CUBESAT 2 15 Dec 07:06:58 07:10:52 39° 98° (E) 07:14:43 437.432
AO-85 15 Dec 07:12:47 07:17:31 46° 246° (WSW) 07:22:31 145.980
Oscar 11 15 Dec 07:14:24 07:17:10 16° 94° (E) 07:19:56 .
CUTE 1.7 + AOD 2 15 Dec 07:14:27 07:18:22 35° 287° (WNW) 07:22:14 437.475
HO-68 15 Dec 07:18:54 07:25:55 61° 289° (WNW) 07:32:55 435.675
AO-73 15 Dec 07:28:10 07:32:20 40° 99° (E) 07:36:31 145.935
XW-2A 15 Dec 07:44:07 07:47:28 53° 284° (WNW) 07:50:48 145.665 - 145.685
SRMSAT 15 Dec 07:44:54 07:49:32 23° 180° (S) 07:54:12 437.500
STRAND 1 15 Dec 07:59:48 08:01:08 11° 268° (W) 08:02:29 437.568
UWE-3 15 Dec 08:07:42 08:11:25 28° 288° (WNW) 08:15:13 435.000/436.395/437.385
CUBEBUG 2 15 Dec 08:10:41 08:13:05 15° 291° (WNW) 08:15:32 437.445
O/OREOS (USA 219) 15 Dec 08:29:16 08:33:08 26° 295° (WNW) 08:37:00 437.305
ZACube-1 15 Dec 08:31:02 08:34:52 30° 287° (WNW) 08:38:45 437.345
AAUSAT CUBESAT 2 15 Dec 08:43:56 08:45:55 13° 292° (WNW) 08:47:52 437.432
TIGRISAT 15 Dec 08:44:48 08:49:05 71° 77° (ENE) 08:53:20 435.000
UNISAT 6 15 Dec 08:48:15 08:52:35 87° 77° (ENE) 08:56:51 437.425
FO-29 15 Dec 08:49:05 08:55:01 25° 267° (W) 09:01:09 435.910
Oscar 11 15 Dec 08:49:25 08:53:20 33° 287° (WNW) 08:57:12 .
AO-73 15 Dec 09:05:44 09:08:10 15° 291° (WNW) 09:10:38 145.935
PRISM 15 Dec 09:13:22 09:17:19 43° 74° (ENE) 09:21:16 437.425
nSIGHT-1 15 Dec 09:24:24 09:27:12 28° 130° (SE) 09:30:01 .
SRMSAT 15 Dec 09:34:03 09:38:07 19° 190° (S) 09:42:10 437.500
DELFI C3 15 Dec 09:36:43 09:40:29 45° 285° (WNW) 09:44:13 145.870
Max Valier Satellite 15 Dec 09:36:52 09:40:35 68° 284° (WNW) 09:44:17 145.860
EO-88 15 Dec 10:03:11 10:06:40 43° 285° (WNW) 10:10:09 145.990 - 145.960
AIST 2D 15 Dec 10:04:33 10:07:58 58° 77° (ENE) 10:11:26 435.315
QB50P2 15 Dec 10:06:21 10:09:28 21° 70° (ENE) 10:12:36 145.880/145.840
ISS 15 Dec 10:08:41 10:11:57 75° 134° (SE) 10:15:14 437.550
DUCHIFAT 1 15 Dec 10:10:56 10:13:21 15° 68° (ENE) 10:15:45 145.980
LO-87 15 Dec 10:31:08 10:34:25 35° 99° (E) 10:37:42 145.935 - 145.965
NANOSAT C BR1 15 Dec 10:36:15 10:40:04 36° 73° (ENE) 10:43:54 145.865
PRISM 15 Dec 10:51:25 10:52:43 11° 267° (W) 10:54:01 437.425
EO-79 15 Dec 10:51:46 10:55:55 68° 77° (ENE) 11:00:05 145.935-145.965
nSIGHT-1 15 Dec 11:00:55 11:03:25 20° 325° (NW) 11:05:54 .
ESTCUBE 1 15 Dec 11:03:04 11:07:35 68° 101° (E) 11:12:05 437.505/2401.250
POLYITAN 1 15 Dec 11:15:03 11:19:10 60° 259° (W) 11:23:19 437.675
AO-91 15 Dec 11:27:33 11:30:31 16° 70° (ENE) 11:33:19 145.960
Gurwin Techsat 1B 15 Dec 11:28:47 11:31:19 14° 64° (ENE) 11:33:50 435.225
SPROUT 15 Dec 11:31:02 11:34:43 28° 97° (E) 11:38:23 437.525
RS-15 15 Dec 11:34:55 11:39:15 12° 97° (E) 11:43:35 29.354- 29.394
QB50P2 15 Dec 11:41:37 11:45:04 25° 263° (W) 11:48:32 145.880/145.840
DUCHIFAT 1 15 Dec 11:44:54 11:48:40 33° 262° (W) 11:52:27 145.980
ISS 15 Dec 11:47:26 11:48:46 12° 330° (NNW) 11:50:06 437.550
NANOSAT C BR1 15 Dec 12:13:45 12:15:51 13° 266° (W) 12:17:56 145.865
Oscar 19 15 Dec 12:16:21 12:21:22 58° 74° (ENE) 12:26:26 437.125/150
BUGSAT 1 15 Dec 12:21:34 12:25:34 59° 259° (W) 12:29:33 437.445
NO-84 15 Dec 12:21:56 12:24:19 16° 38° (NE) 12:26:46 435.350 FM
VELOX 1 15 Dec 12:32:41 12:37:06 88° 283° (WNW) 12:41:29 145.980
AO-7 15 Dec 12:39:10 12:44:12 18° 56° (NE) 12:49:14 .
50 SAT 15 Dec 12:57:18 13:00:03 28° 98° (E) 13:02:47 437.505
AO-91 15 Dec 13:01:52 13:06:40 43° 260° (W) 13:11:04 145.960
Gurwin Techsat 1B 15 Dec 13:05:24 13:10:39 64° 259° (W) 13:15:56 435.225
SPROUT 15 Dec 13:07:25 13:10:21 18° 291° (WNW) 13:13:17 437.525
UKube-1 15 Dec 13:08:22 13:11:52 24° 97° (E) 13:15:21 .
YUBILEINY 15 Dec 13:12:07 13:20:27 44° 78° (ENE) 13:28:39 435.215
M-CUBED/EXP-1 PRIME 15 Dec 13:18:29 13:21:07 16° 62° (ENE) 13:23:49 437.505
DX 1 15 Dec 13:25:27 13:29:47 71° 102° (ESE) 13:34:05 434.975-435.025
ITAMSAT 1 15 Dec 13:32:53 13:35:53 16° 65° (ENE) 13:38:53 435.822/435.867
RS-15 15 Dec 13:37:26 13:49:35 72° 113° (ESE) 14:01:47 29.354- 29.394
NO-84 15 Dec 13:57:56 14:01:49 60° 231° (SW) 14:05:55 435.350 FM
Oscar 19 15 Dec 13:58:49 14:00:59 13° 267° (W) 14:03:11 437.125/150
ITUPSAT 1 15 Dec 14:00:58 14:02:57 12° 93° (E) 14:04:56 437.325
AO-7 15 Dec 14:27:33 14:35:51 88° 254° (WSW) 14:44:14 .
SO-50 15 Dec 14:30:15 14:34:41 90° 233° (SW) 14:39:12 436.795
MOZHAYETS 4 15 Dec 14:37:26 14:41:59 55° 100° (E) 14:46:31
UKube-1 15 Dec 14:44:23 14:47:43 22° 290° (WNW) 14:51:03 .
M-CUBED/EXP-1 PRIME 15 Dec 14:51:02 14:55:02 41° 257° (WSW) 14:59:17 437.505
BEESAT 15 Dec 15:07:11 15:11:57 76° 103° (ESE) 15:16:42 436.000
YUBILEINY 15 Dec 15:09:20 15:16:53 34° 274° (W) 15:24:24 435.215
ITAMSAT 1 15 Dec 15:09:46 15:14:51 53° 259° (W) 15:19:56 435.822/435.867
ITUPSAT 1 15 Dec 15:36:21 15:40:59 52° 286° (WNW) 15:45:37 437.325
DOVE 4 15 Dec 15:50:33 15:55:50 74° 77° (ENE) 16:01:00 437.250
RS-15 15 Dec 15:52:21 16:03:03 33° 314° (NW) 16:13:44 29.354- 29.394
CUBESAT XI-V 15 Dec 16:03:29 16:08:11 73° 284° (WNW) 16:12:50 437.345
LilacSat-2 15 Dec 16:09:41 16:12:00 16° 70° (ENE) 16:14:19 437.200
MOZHAYETS 4 15 Dec 16:16:51 16:18:35 12° 294° (WNW) 16:20:20
KKS-1 15 Dec 16:19:49 16:23:31 26° 97° (E) 16:27:11 437.445
XW-2D 15 Dec 16:21:51 16:24:43 21° 71° (ENE) 16:27:38 145.860 - 145.880
NUDT-PHONESAT 15 Dec 16:22:37 16:24:21 13° 69° (ENE) 16:26:04 437.300
AO-7 15 Dec 16:25:48 16:29:26 13° 267° (W) 16:33:06 .
KAITUO 1B 15 Dec 16:27:39 16:30:03 17° 70° (ENE) 16:32:29 145.475/437.950
XW-2B 15 Dec 16:37:12 16:40:34 31° 74° (ENE) 16:43:58 145.730 - 145.750
ISS 15 Dec 16:41:08 16:42:49 13° 31° (NNE) 16:44:29 437.550
CUTE-I 15 Dec 16:43:34 16:48:30 38° 71° (ENE) 16:53:26 437.470
XW-2F 15 Dec 16:48:03 16:51:35 42° 75° (ENE) 16:55:11 145.980 - 146.000
PCSat 15 Dec 16:52:49 16:57:14 26° 107° (ESE) 17:01:40 145.827
STARS 15 Dec 16:59:30 17:03:13 27° 97° (E) 17:06:55 437.465
XW-2C 15 Dec 17:04:13 17:07:59 81° 77° (ENE) 17:11:47 145.795 - 145.815
O/OREOS (USA 219) 15 Dec 17:04:28 17:07:56 22° 63° (ENE) 17:11:23 437.305
CUBEBUG 2 15 Dec 17:27:34 17:30:25 18° 70° (ENE) 17:33:14 437.445
nSIGHT-1 15 Dec 17:30:12 17:33:20 49° 42° (NE) 17:36:26 .
DOVE 4 15 Dec 17:33:11 17:33:49 10° 269° (W) 17:34:27 437.250
SEEDS 15 Dec 17:37:22 17:40:46 24° 71° (ENE) 17:44:11 437.485
HO-68 15 Dec 17:41:54 17:48:59 65° 72° (ENE) 17:56:05 435.675
LilacSat-2 15 Dec 17:42:46 17:45:59 26° 263° (W) 17:49:15 437.200
AAUSAT CUBESAT 2 15 Dec 17:53:44 17:56:07 15° 69° (ENE) 17:58:31 437.432
NUDT-PHONESAT 15 Dec 17:54:36 17:57:51 30° 263° (W) 18:01:08 437.300
XW-2D 15 Dec 17:56:02 17:58:45 19° 265° (W) 18:01:30 145.860 - 145.880
KKS-1 15 Dec 17:56:29 17:59:52 22° 291° (WNW) 18:03:16 437.445
KAITUO 1B 15 Dec 18:00:44 18:03:47 24° 264° (W) 18:06:52 145.475/437.950
CUTE 1.7 + AOD 2 15 Dec 18:01:44 18:05:58 88° 86° (E) 18:10:15 437.475
XW-2A 15 Dec 18:11:10 18:13:40 20° 72° (ENE) 18:16:11 145.665 - 145.685
XW-2B 15 Dec 18:13:10 18:14:47 12° 267° (W) 18:16:25 145.730 - 145.750
ISS 15 Dec 18:16:19 18:19:34 61° 226° (SW) 18:22:47 437.550
RS-15 15 Dec 18:17:43 18:21:14 11° 347° (NNW) 18:24:43 29.354- 29.394
AO-73 15 Dec 18:20:27 18:23:06 17° 70° (ENE) 18:25:47 145.935
BEESAT 3 15 Dec 18:21:59 18:25:18 26° 111° (ESE) 18:28:39 437.485
CUTE-I 15 Dec 18:24:34 18:28:35 21° 265° (W) 18:32:37 437.470
STRAND 1 15 Dec 18:31:52 18:36:24 32° 98° (E) 18:40:54 437.568
PCSat 15 Dec 18:35:33 18:40:25 34° 302° (WNW) 18:45:19 145.827
STARS 15 Dec 18:36:08 18:39:20 20° 291° (WNW) 18:42:33 437.465
O/OREOS (USA 219) 15 Dec 18:43:30 18:47:16 27° 258° (WSW) 18:51:00 437.305
UWE-3 15 Dec 18:59:36 19:03:42 60° 259° (W) 19:07:48 435.000/436.395/437.385
CUBEBUG 2 15 Dec 19:03:10 19:06:48 28° 263° (W) 19:10:24 437.445
BEESAT 2 15 Dec 19:05:20 19:08:17 20° 110° (ESE) 19:11:16 435.950
nSIGHT-1 15 Dec 19:08:48 19:09:09 10° 235° (SW) 19:09:30 .
SEEDS 15 Dec 19:13:07 19:16:20 21° 265° (W) 19:19:35 437.485
ZACube-1 15 Dec 19:21:44 19:25:50 67° 259° (WSW) 19:29:57 437.345
AAUSAT CUBESAT 2 15 Dec 19:27:25 19:31:13 34° 262° (W) 19:35:03 437.432
FALCONSAT 3 15 Dec 19:28:42 19:30:51 15° 148° (SSE) 19:33:01 435.103
HO-68 15 Dec 19:32:17 19:37:05 19° 266° (W) 19:41:54 435.675
Oscar 11 15 Dec 19:38:52 19:43:10 79° 260° (W) 19:47:30 .
XW-2A 15 Dec 19:44:20 19:46:15 15° 265° (W) 19:48:12 145.665 - 145.685
AO-85 15 Dec 19:46:07 19:47:19 11° 107° (ESE) 19:48:31 145.980
AO-73 15 Dec 19:55:30 19:59:05 29° 263° (W) 20:02:41 145.935
BEESAT 3 15 Dec 19:59:44 20:02:46 21° 306° (NW) 20:05:49 437.485
FO-29 15 Dec 20:03:10 20:09:51 75° 102° (ESE) 20:15:40 435.910
STRAND 1 15 Dec 20:11:20 20:15:21 24° 291° (WNW) 20:19:22 437.568
Max Valier Satellite 15 Dec 20:11:29 20:14:27 24° 73° (ENE) 20:17:26 145.860
DELFI C3 15 Dec 20:16:49 20:20:39 48° 75° (ENE) 20:24:30 145.870
RS-15 15 Dec 20:35:01 20:41:39 16° 27° (NNE) 20:48:05 29.354- 29.394
EO-88 15 Dec 20:36:00 20:39:18 33° 74° (ENE) 20:42:37 145.990 - 145.960
TIGRISAT 15 Dec 20:41:02 20:44:20 20° 96° (E) 20:47:39 435.000
BEESAT 2 15 Dec 20:42:25 20:45:48 26° 305° (NW) 20:49:14 435.950
UNISAT 6 15 Dec 20:44:24 20:48:02 25° 97° (E) 20:51:42 437.425
FALCONSAT 3 15 Dec 21:05:54 21:09:33 63° 160° (SSE) 21:13:12 435.103
AO-85 15 Dec 21:23:33 21:27:12 40° 302° (WNW) 21:31:01 145.980
Max Valier Satellite 15 Dec 21:46:03 21:48:12 15° 265° (W) 21:50:23 145.860
FO-29 15 Dec 21:50:26 21:53:52 15° 300° (WNW) 21:57:08 435.910
ESTCUBE 1 15 Dec 21:58:06 22:02:12 35° 72° (ENE) 22:06:18 437.505/2401.250
EO-88 15 Dec 22:12:17 22:13:00 10° 267° (W) 22:13:43 145.990 - 145.960
TIGRISAT 15 Dec 22:17:14 22:20:56 27° 288° (WNW) 22:24:41 435.000
UNISAT 6 15 Dec 22:21:09 22:24:34 23° 289° (WNW) 22:28:04 437.425
SPROUT 15 Dec 22:21:29 22:23:25 13° 67° (ENE) 22:25:20 437.525
PRISM 15 Dec 22:33:46 22:37:47 58° 284° (WNW) 22:41:45 437.425
LO-87 15 Dec 22:35:19 22:38:43 48° 260° (W) 22:42:09 145.935 - 145.965
EO-79 15 Dec 22:41:56 22:44:25 15° 94° (E) 22:46:55 145.935-145.965
FALCONSAT 3 15 Dec 22:45:03 22:48:42 57° 355° (N) 22:52:19 435.103
RS-15 15 Dec 22:46:13 22:57:40 55° 55° (NE) 23:08:28 29.354- 29.394
POLYITAN 1 15 Dec 23:04:17 23:07:59 29° 98° (E) 23:11:40 437.675
SO-50 15 Dec 23:05:56 23:09:48 25° 54° (NE) 23:13:42 436.795
AIST 2D 15 Dec 23:06:25 23:09:54 56° 283° (WNW) 23:13:20 435.315
VELOX 1 15 Dec 23:25:09 23:29:22 45° 74° (ENE) 23:33:38 145.980
QB50P2 15 Dec 23:29:41 23:33:54 71° 101° (E) 23:38:07 145.880/145.840
DUCHIFAT 1 15 Dec 23:32:32 23:36:36 48° 100° (E) 23:40:40 145.980
ESTCUBE 1 15 Dec 23:36:09 23:39:02 17° 266° (W) 23:41:56 437.505/2401.250
SPROUT 15 Dec 23:54:52 23:58:52 42° 261° (W) 00:02:54 437.525
NANOSAT C BR1 15 Dec 23:59:46 00:03:56 62° 284° (WNW) 00:08:05 145.865
UKube-1 16 Dec 00:00:03 00:01:51 12° 66° (ENE) 00:03:39 .
BUGSAT 1 16 Dec 00:07:45 00:11:08 25° 97° (E) 00:14:31 437.445
EO-79 16 Dec 00:16:25 00:20:13 33° 287° (WNW) 00:24:00 145.935-145.965
DX 1 16 Dec 00:16:31 00:20:27 34° 72° (ENE) 00:24:24 434.975-435.025
FALCONSAT 3 16 Dec 00:24:18 00:27:58 68° 10° (N) 00:31:38 435.103
Oscar 19 16 Dec 00:32:45 00:37:16 29° 97° (E) 00:41:45 437.125/150
POLYITAN 1 16 Dec 00:40:36 00:43:30 18° 290° (WNW) 00:46:23 437.675
SO-50 16 Dec 00:46:06 00:50:13 30° 248° (WSW) 00:54:22 436.795
50 SAT 16 Dec 00:49:55 00:53:04 77° 258° (WSW) 00:56:14 437.505
AO-91 16 Dec 00:56:33 00:59:47 43° 100° (E) 01:03:02 145.960
RS-15 16 Dec 00:59:25 01:09:29 37° 255° (WSW) 01:19:11 29.354- 29.394
VELOX 1 16 Dec 01:04:03 01:05:58 13° 267° (W) 01:07:53 145.980
DUCHIFAT 1 16 Dec 01:10:36 01:11:46 11° 293° (WNW) 01:12:56 145.980
JUGNU 16 Dec 01:18:31 01:20:51 12° 164° (SSE) 01:23:10 437.505
Gurwin Techsat 1B 16 Dec 01:26:02 01:31:21 75° 102° (ESE) 01:36:39 435.225
UKube-1 16 Dec 01:33:15 01:37:24 46° 260° (W) 01:41:34 .
MOZHAYETS 4 16 Dec 01:35:04 01:39:02 31° 72° (ENE) 01:43:02
BUGSAT 1 16 Dec 01:43:24 01:46:16 19° 290° (WNW) 01:49:10 437.445
DX 1 16 Dec 01:53:53 01:56:39 16° 265° (W) 01:59:26 434.975-435.025
FALCONSAT 3 16 Dec 02:03:31 02:06:59 40° 204° (SSW) 02:10:27 435.103
YUBILEINY 16 Dec 02:06:49 02:15:23 59° 91° (E) 02:23:59 435.215
BEESAT 16 Dec 02:08:59 02:13:34 52° 74° (ENE) 02:18:11 436.000
Oscar 19 16 Dec 02:12:05 02:16:24 27° 291° (WNW) 02:20:42 437.125/150
M-CUBED/EXP-1 PRIME 16 Dec 02:34:24 02:37:38 20° 99° (E) 02:40:43 437.505
AO-7 16 Dec 02:34:32 02:42:21 42° 101° (E) 02:50:07 .
ITUPSAT 1 16 Dec 02:38:14 02:42:59 75° 257° (WSW) 02:47:44 437.325
CUBESAT XI-V 16 Dec 03:01:51 03:06:26 65° 76° (ENE) 03:11:05 437.345
JUGNU 16 Dec 03:04:56 03:09:10 21° 173° (S) 03:13:26 437.505
Gurwin Techsat 1B 16 Dec 03:08:56 03:10:35 11° 297° (WNW) 03:12:15 435.225
MOZHAYETS 4 16 Dec 03:12:54 03:16:10 19° 265° (W) 03:19:27
KKS-1 16 Dec 03:14:36 03:17:06 15° 67° (ENE) 03:19:36 437.445
ITAMSAT 1 16 Dec 03:26:55 03:32:06 78° 103° (ESE) 03:37:15 435.822/435.867
PCSat 16 Dec 03:27:06 03:32:32 75° 64° (ENE) 03:37:56 145.827
BEESAT 16 Dec 03:49:36 03:51:34 12° 267° (W) 03:53:31 436.000
STARS 16 Dec 03:52:51 03:55:19 15° 67° (ENE) 03:57:45 437.465
DOVE 4 16 Dec 03:55:10 03:58:44 24° 95° (E) 04:02:10 437.250
SRMSAT 16 Dec 03:57:47 03:59:28 11° 162° (SSE) 04:01:10 437.500
YUBILEINY 16 Dec 04:05:39 04:12:35 25° 288° (WNW) 04:19:34 435.215
M-CUBED/EXP-1 PRIME 16 Dec 04:08:12 04:11:57 28° 294° (WNW) 04:15:29 437.505
BEESAT 3 16 Dec 04:19:11 04:23:00 52° 60° (ENE) 04:26:45 437.485
AO-7 16 Dec 04:27:25 04:34:54 38° 296° (WNW) 04:42:23 .
XW-2C 16 Dec 04:42:59 04:44:22 12° 93° (E) 04:45:45 145.795 - 145.815
KKS-1 16 Dec 04:49:03 04:53:15 41° 260° (W) 04:57:28 437.445
JUGNU 16 Dec 04:53:08 04:57:33 22° 184° (S) 05:02:01 437.505
BEESAT 2 16 Dec 05:03:17 05:07:06 41° 58° (ENE) 05:10:50 435.950
CUTE-I 16 Dec 05:05:39 05:09:42 22° 96° (E) 05:13:43 437.470
NO-84 16 Dec 05:09:33 05:12:24 70° 312° (NW) 05:15:27 435.350 FM
ITAMSAT 1 16 Dec 05:10:04 05:10:50 10° 297° (WNW) 05:11:35 435.822/435.867
PCSat 16 Dec 05:14:10 05:15:11 10° 258° (WSW) 05:16:12 145.827
HO-68 16 Dec 05:17:12 05:20:46 14° 92° (E) 05:24:17 435.675
LilacSat-2 16 Dec 05:19:34 05:23:14 41° 98° (E) 05:26:54 437.200
